カタログに戻る

STARLINK-6244

運用中通信VLEO
NORAD 56548·PAYLOAD·🇺🇸 United States

打ち上げ May 14, 2023 から Cape Canaveral Space Force Station

Loading…

次のパス (今後24時間)

TLE

最新Source: CelesTrak SupGP

元期: Sep 14, 2026, 20:38 UTC

1 56548C 23065AX  26257.86020833  .00027528  00000+0  99722-3 0  2578
2 56548  42.9998 235.5224 0001474 262.6858 330.5297 15.27559173    12

AllMySatでSTARLINK-6244をリアルタイム追跡

Download on the App Store